Change the Weather History Date:

Friday, September 21, 2012

  Actual Average Record
Temperature  
Mean Temperature 68 °F -  
Max Temperature 86 °F 78 °F 96 °F (1955)
Min Temperature 52 °F 51 °F 32 °F (1983)
Cooling Degree Days 3    
Growing Degree Days 18 (Base 50)    
Moisture  
Dew Point 46 °F    
Average Humidity 49    
Maximum Humidity 80    
Minimum Humidity 21    
Precipitation  
Precipitation 0.00 in - - ()
Sea Level Pressure  
Sea Level Pressure 29.84 in    
Wind  
Wind Speed 6 mph (SW)    
Max Wind Speed 21 mph    
Max Gust Speed 28 mph    
Visibility 10 miles    
Events Rain    
Averages and records for this station are not official NWS values.
T = Trace of Precipitation, MM = Missing Value Source: NWS Daily Summary

Daily Weather History Graph

Daily Weather History Graph

Search for Another Location

Airport or City:

Trip Planner

Search our weather history database for the weather conditions in past years. The results will help you decide how hot, cold, wet, or windy it might be!

Date:

Astronomy

Sep. 21, 2012 Rise Set
Actual Time 6:55 AM CDT 7:06 PM CDT
Civil Twilight 6:29 AM CDT 7:32 PM CDT
Nautical Twilight 5:58 AM CDT 8:03 PM CDT
Astronomical Twilight 5:26 AM CDT 8:35 PM CDT
Moon 1:13 PM CDT (9/21) 11:11 PM CDT (9/21)
Length of Visible Light 13h 03m
Length of Day
12h 10m
Waxing Crescent, 37% of the Moon is Illuminated
Sep 21
Waxing Crescent
Sep 22
First Quarter
Sep 29
Full
Oct 8
Last Quarter
Oct 15
New

Hourly Weather History & Observations

Time (CDT) Temp. Heat Index Dew Point Humidity Pressure Visibility Wind Dir Wind Speed Gust Speed Precip Events Conditions
12:53 AM 54.0 °F - 46.9 °F 77% 29.97 in 10.0 mi Calm Calm - N/A   Clear
1:53 AM 54.0 °F - 46.0 °F 75% 29.96 in 10.0 mi SSE 3.5 mph - N/A   Clear
2:53 AM 55.0 °F - 46.9 °F 74% 29.94 in 10.0 mi Calm Calm - N/A   Clear
3:53 AM 53.1 °F - 46.9 °F 80% 29.93 in 10.0 mi SE 4.6 mph - N/A   Clear
4:53 AM 52.0 °F - 46.0 °F 80% 29.91 in 10.0 mi ESE 3.5 mph - N/A   Clear
5:53 AM 54.0 °F - 46.9 °F 77% 29.91 in 10.0 mi South 6.9 mph - N/A   Clear
6:53 AM 60.1 °F - 41.0 °F 49% 29.89 in 10.0 mi ESE 3.5 mph - N/A   Mostly Cloudy
7:53 AM 59.0 °F - 43.0 °F 55% 29.88 in 10.0 mi East 4.6 mph - N/A   Clear
8:53 AM 64.0 °F - 46.0 °F 52% 29.85 in 10.0 mi Variable 3.5 mph - N/A   Clear
9:53 AM 69.1 °F - 52.0 °F 54% 29.84 in 10.0 mi South 9.2 mph - N/A   Clear
10:53 AM 73.0 °F - 55.0 °F 53% 29.81 in 10.0 mi South 10.4 mph - N/A   Clear
11:53 AM 77.0 °F - 57.0 °F 50% 29.78 in 10.0 mi SSW 13.8 mph - N/A   Clear
12:53 PM 80.1 °F 80.6 °F 57.9 °F 47% 29.75 in 10.0 mi WSW 19.6 mph 23.0 mph 0.00 in   Clear
1:53 PM 82.9 °F 82.6 °F 57.9 °F 42% 29.73 in 10.0 mi West 16.1 mph 23.0 mph N/A   Partly Cloudy
2:53 PM 84.9 °F - 52.0 °F 32% 29.71 in 10.0 mi West 12.7 mph 23.0 mph N/A   Clear
3:53 PM 84.0 °F - 42.1 °F 23% 29.70 in 10.0 mi West 20.7 mph 27.6 mph N/A   Clear
4:53 PM 82.9 °F - 39.0 °F 21% 29.72 in 10.0 mi WNW 13.8 mph 26.5 mph N/A   Clear
5:53 PM 80.1 °F - 37.9 °F 22% 29.74 in 10.0 mi West 16.1 mph 24.2 mph N/A   Clear
6:53 PM 77.0 °F - 39.0 °F 25% 29.77 in 10.0 mi WNW 9.2 mph - 0.00 in Rain Light Rain
7:53 PM 73.0 °F - 39.9 °F 30% 29.80 in 10.0 mi Calm Calm - 0.00 in   Clear
8:53 PM 70.0 °F - 39.9 °F 33% 29.83 in 10.0 mi WNW 3.5 mph - N/A   Clear
9:53 PM 66.0 °F - 41.0 °F 40% 29.86 in 10.0 mi WNW 8.1 mph - N/A   Clear
10:53 PM 64.9 °F - 41.0 °F 42% 29.89 in 10.0 mi NW 8.1 mph - N/A   Clear
11:53 PM 66.0 °F - 43.0 °F 43% 29.91 in 10.0 mi Variable 3.5 mph - N/A   Clear